This is the latest recevied weather packets stored in our database for station/object AA7VG. If no packets are shown the sender has not sent any weather packets the latest 10 day(s).
| Time | Temp. | Humidity | Pressure | Rain* | Wind** | Luminosity | Snow |
|---|---|---|---|---|---|---|---|
| 1788535307 | 16.11° C | 46% | 1009 hPa | 0 mm | - | - | - |
| 1788535002 | 16.11° C | 45% | 1008.9 hPa | 0 mm | - | - | - |
| 1788534700 | 16.11° C | 44% | 1008.8 hPa | 0 mm | - | - | - |
| 1788534396 | 16.11° C | 43% | 1008.8 hPa | 0 mm | - | - | - |
| 1788534092 | 16.67° C | 43% | 1008.5 hPa | 0 mm | - | - | - |
| 1788533790 | 16.67° C | 43% | 1008.7 hPa | 0 mm | - | - | - |
| 1788533486 | 16.67° C | 45% | 1008.5 hPa | 0 mm | - | - | - |
| 1788533181 | 16.67° C | 45% | 1008.5 hPa | 0 mm | - | - | - |
| 1788532877 | 16.11° C | 44% | 1008.1 hPa | 0 mm | - | - | - |
| 1788532573 | 15.56° C | 45% | 1008 hPa | 0 mm | - | - | - |
| 1788532269 | 15.56° C | 45% | 1008 hPa | 0 mm | - | - | - |
| 1788531966 | 15° C | 48% | 1008 hPa | 0 mm | - | - | - |
| 1788531665 | 14.44° C | 50% | 1007.9 hPa | 0 mm | - | - | - |
| 1788531361 | 14.44° C | 49% | 1008 hPa | 0 mm | - | - | - |
| 1788531056 | 14.44° C | 50% | 1008 hPa | 0 mm | - | - | - |
| 1788530752 | 14.44° C | 49% | 1007.7 hPa | 0 mm | - | - | - |
| 1788530446 | 15° C | 50% | 1007.6 hPa | 0 mm | - | - | - |
| 1788530145 | 15.56° C | 50% | 1007.6 hPa | 0 mm | - | - | - |
| 1788529842 | 14.44° C | 51% | 1007.6 hPa | 0 mm | - | - | - |
| 1788529537 | 14.44° C | 51% | 1007.4 hPa | 0 mm | - | - | - |
| 1788529231 | 13.89° C | 53% | 1007.4 hPa | 0 mm | - | - | - |
| 1788528925 | 15° C | 53% | 1007.2 hPa | 0 mm | - | - | - |
| 1788528622 | 15° C | 48% | 1007.2 hPa | 0 mm | - | - | - |
| 1788528322 | 14.44° C | 48% | 1007 hPa | 0 mm | - | - | - |
| 1788528022 | 13.89° C | 50% | 1006.9 hPa | 0 mm | - | - | - |
* Rain latest hour (hover to see other rain measurements)
** Current wind speed in m/s (hover to see current wind gust speed)